Location: Chenango Forks
(42.2242°N, 75.8278°W)
Time: 12:39:08
(UTC-05:00)

Daily predictions for brighter satellites

Satellite Brightness Start Highest point End
(mag) Time Altitude Azimuth Time Altitude Azimuth Time Altitude Azimuth
Meteor 1-5 Rocket 4.4 16:56:15 10° N 17:01:26 45° ENE 17:06:43 10° SSE
Cosmos 2181 Rocket 4.2 16:56:01 10° SSE 17:02:10 56° E 17:08:25 10° NNE
IDEFIX/ARIANE 42P 2.9 16:58:02 10° SE 17:02:56 45° ENE 17:07:52 10° N
Cosmos 1378 Rocket 3.5 16:59:08 10° S 17:03:26 79° E 17:07:45 10° N
USA 234 3.4 16:59:30 10° NE 17:06:04 78° NW 17:12:34 10° WSW
Cosmos 372 Rocket 4.1 17:03:41 10° S 17:08:51 63° ESE 17:14:03 10° NNE
APEX 4.4 17:02:42 10° SSW 17:09:33 88° ESE 17:14:58 10° NNE
Abrixas 3.9 17:07:25 10° WNW 17:09:58 25° N 17:12:30 10° NE
Cosmos 1602 4.3 17:07:03 10° NNW 17:10:57 63° W 17:14:47 10° S
Ariane Rocket 4.5 17:07:29 10° S 17:12:17 42° W 17:17:06 10° NNW
Cosmos 1484 Rocket 4.1 17:09:41 10° ESE 17:12:19 18° ENE 17:14:56 10° NNE
NOSS 3-1 (A) 4.5 17:05:26 10° NW 17:13:03 71° WSW 17:21:20 10° SSE
Cosmos 2082 Rocket 3.9 17:10:41 10° NNE 17:13:12 13° NE 17:15:43 10° ENE
OTV 4 2.3 17:11:15 10° WSW 17:13:53 28° S 17:16:31 10° SE
Cosmos 1455 Rocket 4.0 17:11:00 10° NNE 17:14:44 26° ENE 17:18:28 10° SE
Cosmos 1295 Rocket 4.4 17:13:02 10° N 17:19:10 70° E 17:25:13 10° SSE
Cosmos 1833 Rocket 4.4 17:17:03 10° NNE 17:19:19 12° NE 17:21:00 11° ENE
Cosmos 1125 Rocket 3.9 17:17:25 10° SSW 17:22:41 67° WNW 17:28:00 10° NNE
Cosmos 2341 Rocket 4.1 17:17:00 10° N 17:23:15 83° W 17:29:27 10° S
Thor Agena Rocket 3.6 17:19:33 10° NNE 17:24:45 70° ESE 17:29:58 10° S
ATLAS 2AS CENTAUR R/B 3.1 17:17:14 10° NNW 17:25:14 56° NE 17:32:42 10° SE
Cosmos 1536 3.7 17:31:36 10° NNW 17:35:35 54° W 17:39:33 10° S
Okean 1 4.3 17:32:27 10° SSE 17:35:53 27° E 17:38:45 13° NE
Cosmos 1500 4.4 17:33:14 10° NNE 17:36:09 20° ENE 17:39:05 10° ESE
Meteor 1-18 Rocket 4.4 17:33:28 10° SSE 17:38:50 49° E 17:44:20 10° NNE
Cosmos 2251 Rocket 3.6 17:33:46 10° N 17:39:02 53° ENE 17:44:13 10° SE
Cosmos 2263 Rocket 4.0 17:34:54 10° WSW 17:39:33 26° NW 17:44:15 10° N
ISS -3.3 17:44:07 10° WSW 17:47:24 76° NNW 17:49:07 26° NE
MSX 3.8 17:47:12 10° SSE 17:52:57 85° ENE 17:58:44 10° NNW
SL-27 R/B 2.5 17:51:13 10° NNW 17:54:55 90° E 17:58:34 10° SSE
Nadezhda 3 Rocket 4.4 17:50:56 10° SSE 17:56:31 37° E 18:02:10 10° NNE
Cosmos 1812 2.6 17:52:51 10° S 17:56:42 69° E 18:00:23 11° NNE
Cosmos 1346 Rocket 3.6 17:53:30 10° SSE 17:56:54 29° E 17:57:08 29° E
Cosmos 864 Rocket 4.4 17:53:28 10° N 17:59:47 80° E 18:06:05 10° S
CZ-4 R/B 3.3 17:57:07 10° SSW 18:00:55 33° W 18:04:43 10° NNW
COSMO-SKYMED 1 2.6 17:57:35 12° NNE 18:01:35 59° E 18:05:52 10° S
Cosmos 1544 Rocket 3.8 17:58:29 10° NNW 18:02:57 72° W 18:07:24 10° S
Cosmos 1844 Rocket 3.0 17:59:56 10° SW 18:05:29 66° WNW 18:11:06 10° NNE
GEOS 3 Rocket 3.5 18:01:18 10° SE 18:06:24 74° NE 18:11:31 10° NNW
CZ-2C R/B 3.7 18:02:53 10° S 18:07:34 44° W 18:12:26 10° NNW
Cosmos 1238 Rocket 2.7 18:08:51 10° SSW 18:11:46 54° W 18:13:47 18° N
Meteor 1-12 Rocket 4.2 18:06:09 10° N 18:11:57 88° E 18:17:50 10° S
Cosmos 1844 3.8 18:10:10 10° SSW 18:15:42 73° WNW 18:20:25 15° NNE
Cosmos 1975 2.7 18:12:42 10° N 18:16:49 82° E 18:20:51 10° S
CZ-3A R/B 4.1 18:11:17 10° W 18:16:51 56° NNW 18:35:18 20° ENE
Cosmos 2297 4.3 18:11:55 10° SSE 18:16:55 34° ESE 18:17:27 33° E
OPS 8737 4.2 18:15:12 10° SW 18:18:32 78° NW 18:18:56 63° NNE
BREEZE-M DEB (TANK) 3.4 18:17:06 10° WNW 18:18:34 24° NNW 18:18:34 24° NNW
Cosmos 1536 Rocket 3.7 18:18:29 10° SSW 18:22:55 74° W 18:27:23 10° N
Meteor 1-19 Rocket 4.5 18:23:09 10° SSE 18:28:35 46° E 18:29:44 41° ENE
Cosmos 2278 Rocket 2.2 18:27:46 10° SSW 18:33:25 85° WNW 18:36:35 28° NNE
Meteor 2-21 Rocket 4.3 18:30:16 10° N 18:36:29 74° E 18:42:38 10° SSE
Meteor 2-16 Rocket 4.3 18:36:09 10° N 18:42:14 67° E 18:48:15 10° SSE
Meteor 1-13 Rocket 4.1 18:37:44 10° S 18:43:20 75° E 18:46:06 32° NNE
Okean 1-7 Rocket 4.0 18:43:18 10° S 18:46:44 50° SSE 18:46:44 50° SSE
USA 234 4.4 18:45:29 23° NNE 18:48:29 33° NNW 18:54:09 10° W
OTV 4 3.5 18:48:36 10° SW 18:49:39 12° SSW 18:49:39 12° SSW
CZ-3B DEB 3.0 18:46:34 10° WSW 18:50:59 60° NNW 18:55:17 32° NE
Cosmos 1535 Rocket 4.3 18:47:32 10° N 18:53:53 72° E 19:00:06 10° SSE
Timation 2 Rocket 4.0 18:49:50 10° NNW 18:56:42 79° ENE 18:59:44 37° SE
Cosmos 2082 Rocket 2.2 18:52:42 10° NNW 18:57:45 64° NNE 18:57:45 64° NNE
Cosmos 1934 Rocket 4.4 18:52:52 10° N 19:06:36 - SSE 18:57:07 44° NNE
NOSS 3-4 (A) 4.3 18:54:09 10° NNW 18:59:50 40° NNE 18:59:50 40° NNE
NOSS 3-4 (C) 4.3 18:54:15 10° NNW 18:59:54 40° NNE 18:59:54 40° NNE
Cosmos 1833 Rocket 3.2 18:58:45 10° NNW 19:02:46 45° N 19:02:46 45° N
BREEZE-M DEB (TANK) 4.2 19:01:02 10° WNW 19:05:27 32° N 19:05:27 32° N
NOSS 3-3 (A) 4.3 19:01:32 10° SW 19:07:43 63° NW 19:09:41 44° N
NOSS 3-3 (C) 4.3 19:01:38 10° SW 19:07:49 64° NW 19:09:45 45° N
SL-8 R/B 4.2 19:05:13 10° WSW 19:09:02 56° W 19:09:02 56° W
Cosmos 2239 Rocket 4.4 19:05:52 10° N 19:12:06 82° W 19:18:15 10° S
ATLAS 2AS CENTAUR R/B 4.2 19:08:47 10° NW 19:16:00 38° WSW 19:22:45 10° S
Cosmos 1821 Rocket 4.0 19:14:21 10° NNW 19:20:28 74° W 19:26:31 10° S
ISS 0.2 19:21:46 10° WNW 19:21:48 10° WNW 19:21:48 10° WNW
ATLAS 3B CENTAUR R/B 4.3 19:50:57 10° WSW 20:00:05 26° SSW 20:00:10 26° SSW
FALCON 9 R/B 4.2 20:18:13 10° W 20:26:28 33° SW 20:26:28 33° SW
